Location: Conway
(43.9790°N, 71.1210°W)
Time: 14:36:11
(UTC-04:00)

ISS - Visible Passes

Search period start: 22 March 2019 00:00
Search period end: 01 April 2019 00:00
Orbit: 406 x 411 km, 51.6° (Epoch: 23 March)

Date Brightness Start Highest point End Pass type
(mag) Time Alt. Az. Time Alt. Az. Time Alt. Az.
22 Mar -3.7 20:48:34 10° WSW 20:51:52 72° NNW 20:51:54 72° NNW visible
23 Mar -3.8 19:57:33 10° SW 20:00:49 67° SE 20:03:30 14° ENE visible
23 Mar -1.2 21:34:40 10° W 21:36:16 21° WNW 21:36:16 21° WNW visible
24 Mar -2.5 20:43:16 10° W 20:46:23 38° NNW 20:47:41 26° NNE visible
25 Mar -3.2 19:51:58 10° WSW 19:55:13 57° NNW 19:58:29 10° NE visible
25 Mar -1.4 21:29:35 10° WNW 21:31:41 21° NNW 21:31:41 21° NNW visible
26 Mar -1.9 20:38:08 10° WNW 20:40:59 26° NNW 20:42:50 16° NNE visible
27 Mar -2.2 19:46:41 10° W 19:49:43 32° NNW 19:52:45 10° NE visible
27 Mar -1.5 21:24:21 10° NW 21:26:37 20° N 21:26:37 20° N visible
28 Mar -1.6 20:32:58 10° WNW 20:35:36 21° N 20:37:35 13° NE visible
28 Mar -0.3 22:09:57 10° NW 22:10:19 12° NW 22:10:19 12° NW visible
29 Mar -1.8 19:41:31 10° WNW 19:44:16 24° N 19:47:01 10° NE visible
29 Mar -1.8 21:18:49 10° NW 21:21:14 23° N 21:21:14 23° N visible
30 Mar -1.7 20:27:35 10° NW 20:30:12 21° N 20:32:08 14° NE visible
30 Mar -0.6 22:04:10 10° NW 22:04:51 15° NW 22:04:51 15° NW visible
31 Mar -1.7 19:36:13 10° NW 19:38:49 21° N 19:41:26 10° NE visible
31 Mar -2.3 21:13:03 10° NW 21:15:44 30° N 21:15:44 30° N visible
